To NAV CANADA Home Page Login to a new session Search on AWWS site Feedback and Comments Disclaimer Vers la page française équivalente Tips FAQ What's new on the site To the Forecasts and Observations / NOTAM section To "File a Flight Plan" website Publications and other links Update of the User's profile FIC Telephone Numbers My Weather Data Folder Route Weather Data Regional Weather Data Local Weather Data To the Forecasts and Observations / NOTAM section
Request Generated 02/08/2016 at 18:30:34 UTC . Weather information available at that time is displayed.

METAR/TAF

KINDERSLEY/KINDERSLEY REGIONAL/SK    

METAR CYKY 081800Z 20008KT 15SM BKN015 M02/M06 A3029 RMK SC7 SLP299=
METAR CYKY 081700Z 19007KT 15SM BKN020 M03/M06 A3029 RMK SC7 SLP299=
METAR CYKY 081600Z 18005KT 15SM BKN020 M04/M07 A3030 RMK SC7 SLP304=

CYKY - No TAF is issued for this station

Your time UTC time
Weather data provided by Environment Canada and NAV CANADA